Previsão horária em Aalen

Hoje, 12 Abril, Segunda-feira

Tempo Temperatura Precipitação Vento Pressão Humidade
00:00 +4°C° 0.6 mm 3 m/s 722 mmHg 96%
01:00 +3°C° 0.6 mm 4 m/s 722 mmHg 97%
02:00 +1°C° 0.5 mm 4 m/s 723 mmHg 97%
03:00 0°C° 0.5 mm 4 m/s 723 mmHg 98%
04:00 0°C° 0.5 mm 4 m/s 724 mmHg 98%
05:00 -1°C° 0.5 mm 4 m/s 724 mmHg 98%
06:00 -1°C° 0.5 mm 4 m/s 725 mmHg 97%
07:00 -1°C° 0.5 mm 4 m/s 726 mmHg 96%
08:00 -1°C° 0.2 mm 4 m/s 726 mmHg 92%
09:00 0°C° 0.2 mm 4 m/s 727 mmHg 87%
10:00 0°C° 0.2 mm 4 m/s 727 mmHg 83%
11:00 0°C° 0 mm 4 m/s 728 mmHg 79%
12:00 +1°C° 0 mm 4 m/s 728 mmHg 75%
13:00 +2°C° 0 mm 3 m/s 728 mmHg 72%
14:00 +2°C° 0.1 mm 3 m/s 728 mmHg 76%
15:00 +2°C° 0.1 mm 3 m/s 728 mmHg 76%
16:00 +3°C° 0.1 mm 3 m/s 728 mmHg 75%
17:00 +3°C° 0.1 mm 2 m/s 728 mmHg 78%
18:00 +4°C° 0.1 mm 1 m/s 728 mmHg 81%
19:00 +3°C° 0.1 mm 1 m/s 729 mmHg 84%
20:00 +3°C° 0 mm 1 m/s 729 mmHg 85%
21:00 +2°C° 0 mm 1 m/s 729 mmHg 86%
22:00 +2°C° 0 mm 1 m/s 729 mmHg 87%
23:00 +2°C° 0 mm 1 m/s 729 mmHg 88%

Amanhã, 13 Abril, Terça-feira

Tempo Temperatura Precipitação Vento Pressão Humidade
00:00 +1°C° 0 mm 1 m/s 729 mmHg 88%
01:00 +1°C° 0 mm 1 m/s 729 mmHg 88%
02:00 +1°C° 0 mm 1 m/s 729 mmHg 89%
03:00 0°C° 0 mm 1 m/s 729 mmHg 90%
04:00 0°C° 0 mm 1 m/s 729 mmHg 91%
05:00 +1°C° 0 mm 1 m/s 730 mmHg 90%
06:00 +1°C° 0 mm 1 m/s 730 mmHg 89%
07:00 +2°C° 0 mm 1 m/s 730 mmHg 87%
08:00 +3°C° 0.1 mm 1 m/s 730 mmHg 84%
09:00 +3°C° 0.1 mm 2 m/s 730 mmHg 80%
10:00 +4°C° 0.1 mm 2 m/s 730 mmHg 77%
11:00 +4°C° 0.3 mm 2 m/s 730 mmHg 77%
12:00 +3°C° 0.3 mm 3 m/s 730 mmHg 77%
13:00 +4°C° 0.3 mm 3 m/s 730 mmHg 77%
14:00 +4°C° 0.2 mm 4 m/s 730 mmHg 74%
15:00 +4°C° 0.2 mm 4 m/s 730 mmHg 72%
16:00 +4°C° 0.2 mm 4 m/s 730 mmHg 70%
17:00 +3°C° 0.1 mm 3 m/s 730 mmHg 74%
18:00 +3°C° 0.1 mm 2 m/s 730 mmHg 78%
19:00 +2°C° 0.1 mm 2 m/s 730 mmHg 82%
20:00 +2°C° 0 mm 1 m/s 730 mmHg 83%
21:00 +1°C° 0 mm 1 m/s 730 mmHg 84%
22:00 +1°C° 0 mm 1 m/s 731 mmHg 85%
23:00 0°C° 0 mm 1 m/s 730 mmHg 86%

Depois de amanhã, 14 Abril, Quarta-feira

Tempo Temperatura Precipitação Vento Pressão Humidade
00:00 0°C° 0 mm 1 m/s 730 mmHg 86%
01:00 0°C° 0 mm 1 m/s 730 mmHg 86%
02:00 -1°C° 0 mm 1 m/s 730 mmHg 87%
03:00 -1°C° 0 mm 1 m/s 730 mmHg 87%
04:00 -1°C° 0 mm 1 m/s 730 mmHg 88%
05:00 -1°C° 0 mm 1 m/s 730 mmHg 86%
06:00 0°C° 0 mm 1 m/s 730 mmHg 84%
07:00 +1°C° 0 mm 1 m/s 730 mmHg 83%
08:00 +1°C° 0.1 mm 2 m/s 730 mmHg 75%
09:00 +2°C° 0.1 mm 3 m/s 730 mmHg 67%
10:00 +4°C° 0.1 mm 3 m/s 730 mmHg 59%
11:00 +4°C° 0.1 mm 3 m/s 730 mmHg 54%
12:00 +5°C° 0.1 mm 4 m/s 729 mmHg 49%
13:00 +6°C° 0.1 mm 4 m/s 729 mmHg 44%
14:00 +6°C° 0 mm 4 m/s 729 mmHg 45%
15:00 +6°C° 0 mm 4 m/s 728 mmHg 45%
16:00 +5°C° 0 mm 4 m/s 728 mmHg 46%
17:00 +4°C° 0 mm 3 m/s 728 mmHg 55%
18:00 +2°C° 0 mm 3 m/s 728 mmHg 64%
19:00 +2°C° 0 mm 2 m/s 728 mmHg 73%
20:00 +1°C° 0 mm 2 m/s 728 mmHg 76%
21:00 +1°C° 0 mm 2 m/s 728 mmHg 78%
22:00 +1°C° 0 mm 1 m/s 729 mmHg 81%
23:00 +1°C° 0 mm 1 m/s 729 mmHg 82%

15 Abril, Quinta-feira

Tempo Temperatura Precipitação Vento Pressão Humidade
00:00 0°C° 0 mm 1 m/s 728 mmHg 82%
01:00 0°C° 0 mm 1 m/s 728 mmHg 83%
02:00 0°C° 0 mm 1 m/s 728 mmHg 83%
03:00 -1°C° 0 mm 1 m/s 728 mmHg 84%
04:00 -1°C° 0 mm 1 m/s 728 mmHg 84%
05:00 0°C° 0 mm 1 m/s 728 mmHg 81%
06:00 +1°C° 0 mm 1 m/s 728 mmHg 78%
07:00 +1°C° 0 mm 1 m/s 729 mmHg 75%
08:00 +2°C° 0.1 mm 2 m/s 729 mmHg 71%
09:00 +2°C° 0.1 mm 3 m/s 729 mmHg 67%
10:00 +4°C° 0.1 mm 4 m/s 729 mmHg 64%
11:00 +4°C° 0.2 mm 4 m/s 728 mmHg 63%
12:00 +4°C° 0.2 mm 4 m/s 728 mmHg 63%
13:00 +4°C° 0.2 mm 4 m/s 728 mmHg 62%
14:00 +5°C° 0.1 mm 4 m/s 728 mmHg 58%
15:00 +5°C° 0.1 mm 4 m/s 728 mmHg 54%
16:00 +5°C° 0.1 mm 4 m/s 728 mmHg 50%
17:00 +4°C° 0 mm 4 m/s 728 mmHg 55%
18:00 +3°C° 0 mm 4 m/s 728 mmHg 60%
19:00 +1°C° 0 mm 3 m/s 728 mmHg 64%
20:00 0°C° 0 mm 3 m/s 728 mmHg 69%
21:00 -1°C° 0 mm 2 m/s 728 mmHg 74%
22:00 -2°C° 0 mm 2 m/s 728 mmHg 79%
23:00 -2°C° 0 mm 2 m/s 728 mmHg 81%

16 Abril, Sexta-feira

Tempo Temperatura Precipitação Vento Pressão Humidade
00:00 -2°C° 0 mm 2 m/s 728 mmHg 83%
01:00 -3°C° 0 mm 2 m/s 728 mmHg 85%
02:00 -3°C° 0 mm 2 m/s 728 mmHg 88%
03:00 -3°C° 0 mm 2 m/s 727 mmHg 90%
04:00 -3°C° 0 mm 2 m/s 727 mmHg 93%
05:00 -2°C° 0 mm 2 m/s 727 mmHg 90%
06:00 -2°C° 0 mm 2 m/s 727 mmHg 87%
07:00 -1°C° 0 mm 2 m/s 727 mmHg 84%
08:00 +1°C° 0 mm 3 m/s 727 mmHg 77%
09:00 +3°C° 0 mm 3 m/s 727 mmHg 70%
10:00 +4°C° 0 mm 4 m/s 727 mmHg 63%
11:00 +4°C° 0 mm 4 m/s 727 mmHg 63%
12:00 +5°C° 0 mm 4 m/s 727 mmHg 64%
13:00 +5°C° 0 mm 4 m/s 727 mmHg 64%
14:00 +5°C° 0 mm 4 m/s 727 mmHg 65%
15:00 +5°C° 0 mm 4 m/s 727 mmHg 66%
16:00 +5°C° 0 mm 4 m/s 726 mmHg 68%
17:00 +5°C° 0 mm 4 m/s 726 mmHg 71%
18:00 +4°C° 0 mm 4 m/s 726 mmHg 75%
19:00 +3°C° 0 mm 4 m/s 726 mmHg 78%
20:00 +3°C° 0 mm 4 m/s 727 mmHg 81%
21:00 +1°C° 0 mm 4 m/s 727 mmHg 83%
22:00 +1°C° 0 mm 4 m/s 727 mmHg 86%
23:00 +2°C° 0 mm 3 m/s 727 mmHg 87%

17 Abril, Sábado

Tempo Temperatura Precipitação Vento Pressão Humidade
00:00 +1°C° 0 mm 3 m/s 727 mmHg 88%
01:00 +1°C° 0 mm 3 m/s 726 mmHg 89%
02:00 +1°C° 0 mm 3 m/s 726 mmHg 91%
03:00 0°C° 0 mm 3 m/s 726 mmHg 93%
04:00 0°C° 0 mm 3 m/s 726 mmHg 95%
05:00 0°C° 0 mm 3 m/s 726 mmHg 91%
06:00 0°C° 0 mm 4 m/s 726 mmHg 88%
07:00 +1°C° 0 mm 4 m/s 726 mmHg 85%
08:00 +3°C° 0 mm 4 m/s 726 mmHg 81%
09:00 +2°C° 0 mm 5 m/s 725 mmHg 78%
10:00 +3°C° 0 mm 5 m/s 725 mmHg 75%
11:00 +5°C° 0 mm 5 m/s 725 mmHg 73%
12:00 +5°C° 0 mm 5 m/s 725 mmHg 72%
13:00 +6°C° 0 mm 5 m/s 725 mmHg 71%
14:00 +6°C° 0 mm 5 m/s 724 mmHg 73%
15:00 +6°C° 0 mm 4 m/s 724 mmHg 74%
16:00 +6°C° 0 mm 4 m/s 724 mmHg 76%
17:00 +5°C° 0 mm 4 m/s 724 mmHg 79%
18:00 +5°C° 0 mm 4 m/s 724 mmHg 82%
19:00 +4°C° 0 mm 4 m/s 724 mmHg 84%
20:00 +4°C° 0 mm 4 m/s 724 mmHg 85%
21:00 +4°C° 0 mm 4 m/s 724 mmHg 86%
22:00 +4°C° 0 mm 4 m/s 724 mmHg 87%
23:00 +4°C° 0 mm 4 m/s 724 mmHg 88%
Mostrar mais